Weather History for KGWB - February, 2014

Change the Weather History Date:

Monday, February 17, 2014

  Actual Average (KFWA) Record (KFWA)
Temperature  
Mean Temperature 20 °F 29 °F  
Max Temperature 30 °F 37 °F 61 °F (1911)
Min Temperature 10 °F 21 °F -12 °F (1973)
Degree Days  
Heating Degree Days 45 36  
Month to date heating degree days 648  
Since 1 July heating degree days 4219  
Cooling Degree Days 0 0  
Month to date cooling degree days 0  
Year to date cooling degree days 0  
Moisture  
Dew Point 13 °F    
Average Humidity 78    
Maximum Humidity 93    
Minimum Humidity 63    
Precipitation  
Precipitation 0.07 in 0.06 in 0.52 in (2008)
Month to date precipitation 1.20  
Year to date precipitation 3.46  
Snow  
Snow 0.00 in 0.30 in 2.90 in (2014)
Month to date snowfall 5.1  
Since 1 July snowfall 25.8  
Snow Depth -    
Sea Level Pressure  
Sea Level Pressure 30.03 in    
Wind  
Wind Speed 8 mph (ESE)    
Max Wind Speed 23 mph    
Max Gust Speed 32 mph    
Visibility 7 miles    
Events Snow    
T = Trace of Precipitation, MM = Missing Value Source: NWS Daily Summary

Daily Weather History Graph

Daily Weather History Graph

Search for Another Location

Airport or City:

Trip Planner

Search our weather history database for the weather conditions in past years. The results will help you decide how hot, cold, wet, or windy it might be!

Date:

Astronomy

Feb. 17, 2014 Rise Set
Actual Time 7:32 AM EST 6:16 PM EST
Civil Twilight 7:04 AM EST 6:44 PM EST
Nautical Twilight 6:31 AM EST 7:17 PM EST
Astronomical Twilight 5:59 AM EST 7:49 PM EST
Moon 9:12 PM EST (2/17) 8:30 AM EST (2/17)
Length of Visible Light 11h 40m
Length of Day
10h 44m
Waning Gibbous, 93% of the Moon is Illuminated
Feb 17
Waning Gibbous
Feb 22
Last Quarter
Mar 1
New
Mar 8
First Quarter
Mar 16
Full

Hourly Weather History & Observations

Time (EST) Temp. Windchill Dew Point Humidity Pressure Visibility Wind Dir Wind Speed Gust Speed Precip Events Conditions
12:15 AM 12.2 °F 4.3 °F 8.6 °F 85% 30.29 in 10.0 mi East 4.6 mph - N/A   Clear
12:35 AM 14.0 °F 8.2 °F 8.6 °F 79% 30.30 in 10.0 mi East 3.5 mph - N/A   Clear
12:55 AM 12.2 °F 2.9 °F 6.8 °F 79% 30.30 in 10.0 mi East 5.8 mph - N/A   Clear
1:15 AM 12.2 °F 1.7 °F 8.6 °F 85% 30.30 in 10.0 mi East 6.9 mph - N/A   Clear
1:35 AM 12.2 °F 2.9 °F 6.8 °F 79% 30.31 in 10.0 mi East 5.8 mph - N/A   Clear
1:55 AM 14.0 °F 8.2 °F 10.4 °F 86% 30.32 in 10.0 mi ESE 3.5 mph - N/A   Clear
2:15 AM 14.0 °F 6.5 °F 10.4 °F 86% 30.33 in 7.0 mi East 4.6 mph - N/A   Clear
2:35 AM 14.0 °F 5.1 °F 10.4 °F 86% 30.33 in 7.0 mi East 5.8 mph - N/A   Clear
2:55 AM 14.0 °F 8.2 °F 10.4 °F 86% 30.33 in 7.0 mi ESE 3.5 mph - N/A   Clear
3:15 AM 14.0 °F 5.1 °F 10.4 °F 86% 30.32 in 5.0 mi ESE 5.8 mph - N/A   Clear
3:35 AM 14.0 °F 3.9 °F 10.4 °F 86% 30.31 in 5.0 mi East 6.9 mph - N/A   Clear
3:55 AM 12.2 °F 2.9 °F 10.4 °F 92% 30.31 in 7.0 mi East 5.8 mph - N/A   Clear
4:15 AM 12.2 °F 1.7 °F 8.6 °F 85% 30.30 in 10.0 mi East 6.9 mph - N/A   Clear
4:35 AM 12.2 °F 1.7 °F 8.6 °F 85% 30.30 in 10.0 mi East 6.9 mph - N/A   Scattered Clouds
4:55 AM 12.2 °F 2.9 °F 6.8 °F 79% 30.31 in 10.0 mi East 5.8 mph - N/A   Scattered Clouds
5:15 AM 12.2 °F 1.7 °F 6.8 °F 79% 30.31 in 10.0 mi East 6.9 mph - N/A   Clear
5:35 AM 10.4 °F 0.8 °F 5.0 °F 79% 30.31 in 10.0 mi East 5.8 mph - N/A   Clear
5:55 AM 12.2 °F 1.7 °F 6.8 °F 79% 30.29 in 10.0 mi East 6.9 mph - N/A   Scattered Clouds
6:15 AM 12.2 °F 0.7 °F 6.8 °F 79% 30.29 in 10.0 mi East 8.1 mph - N/A   Mostly Cloudy
6:35 AM 12.2 °F 0.7 °F 6.8 °F 79% 30.28 in 10.0 mi East 8.1 mph - N/A   Mostly Cloudy
6:55 AM 12.2 °F -1.0 °F 5.0 °F 73% 30.28 in 10.0 mi East 10.4 mph - N/A   Mostly Cloudy
7:15 AM 12.2 °F -0.2 °F 5.0 °F 73% 30.26 in 10.0 mi East 9.2 mph - N/A   Clear
7:35 AM 12.2 °F -1.0 °F 5.0 °F 73% 30.25 in 10.0 mi East 10.4 mph - N/A   Mostly Cloudy
7:55 AM 12.2 °F -0.2 °F 5.0 °F 73% 30.25 in 10.0 mi East 9.2 mph - N/A   Overcast
8:15 AM 14.0 °F 3.9 °F 6.8 °F 73% 30.25 in 10.0 mi East 6.9 mph - N/A   Overcast
8:35 AM 14.0 °F 5.1 °F 8.6 °F 79% 30.27 in 10.0 mi East 5.8 mph - N/A   Overcast
8:55 AM 14.0 °F 3.9 °F 8.6 °F 79% 30.26 in 10.0 mi ESE 6.9 mph - N/A   Overcast
9:15 AM 15.8 °F 5.1 °F 8.6 °F 73% 30.25 in 10.0 mi East 8.1 mph - N/A   Overcast
9:35 AM 15.8 °F 5.1 °F 10.4 °F 79% 30.24 in 10.0 mi ESE 8.1 mph - N/A   Overcast
9:55 AM 17.6 °F 5.7 °F 10.4 °F 73% 30.22 in 10.0 mi ESE 10.4 mph - N/A   Overcast
10:15 AM 17.6 °F 5.0 °F 10.4 °F 73% 30.20 in 10.0 mi ESE 11.5 mph - N/A   Mostly Cloudy
10:35 AM 19.4 °F 8.6 °F 10.4 °F 68% 30.20 in 10.0 mi ESE 9.2 mph 17.3 mph N/A   Mostly Cloudy
10:55 AM 19.4 °F 7.2 °F 10.4 °F 68% 30.17 in 10.0 mi East 11.5 mph 19.6 mph N/A   Overcast
11:15 AM 19.4 °F 6.6 °F 10.4 °F 68% 30.16 in 10.0 mi East 12.7 mph 17.3 mph N/A   Overcast
11:35 AM 19.4 °F 6.6 °F 10.4 °F 68% 30.14 in 10.0 mi East 12.7 mph 18.4 mph N/A   Overcast
11:55 AM 21.2 °F 10.1 °F 10.4 °F 63% 30.13 in 10.0 mi ESE 10.4 mph 18.4 mph N/A   Overcast
12:15 PM 21.2 °F 9.5 °F 12.2 °F 68% 30.11 in 10.0 mi East 11.5 mph 19.6 mph N/A   Overcast
12:35 PM 21.2 °F 8.3 °F 12.2 °F 68% 30.09 in 10.0 mi East 13.8 mph 18.4 mph N/A   Overcast
12:55 PM 21.2 °F 8.3 °F 12.2 °F 68% 30.07 in 10.0 mi ESE 13.8 mph 17.3 mph N/A   Overcast
1:15 PM 21.2 °F 9.5 °F 12.2 °F 68% 30.05 in 10.0 mi East 11.5 mph 17.3 mph N/A   Overcast
1:35 PM 21.2 °F 7.3 °F 12.2 °F 68% 30.02 in 10.0 mi East 16.1 mph - N/A   Overcast
1:55 PM 21.2 °F 7.8 °F 12.2 °F 68% 29.97 in 7.0 mi East 15.0 mph 21.9 mph N/A   Overcast
2:15 PM 21.2 °F 7.8 °F 12.2 °F 68% 29.95 in 10.0 mi East 15.0 mph 19.6 mph N/A   Mostly Cloudy
2:35 PM 21.2 °F 8.3 °F 12.2 °F 68% 29.92 in 10.0 mi East 13.8 mph 24.2 mph N/A   Overcast
2:55 PM 21.2 °F 6.8 °F 14.0 °F 74% 29.88 in 7.0 mi East 17.3 mph 23.0 mph N/A   Overcast
3:15 PM 23.0 °F 11.7 °F 14.0 °F 68% 29.88 in 10.0 mi East 11.5 mph 17.3 mph N/A   Mostly Cloudy
3:35 PM 23.0 °F 11.1 °F 14.0 °F 68% 29.87 in 10.0 mi East 12.7 mph 18.4 mph N/A   Overcast
3:55 PM 23.0 °F 11.7 °F 14.0 °F 68% 29.85 in 10.0 mi East 11.5 mph 20.7 mph N/A   Overcast
4:15 PM 23.0 °F 13.1 °F 14.0 °F 68% 29.83 in 10.0 mi ESE 9.2 mph 18.4 mph N/A   Overcast
4:35 PM 23.0 °F 9.6 °F 14.0 °F 68% 29.78 in 5.0 mi East 16.1 mph 21.9 mph N/A Snow Light Snow
4:55 PM 23.0 °F 11.1 °F 15.8 °F 74% 29.77 in 0.8 mi East 12.7 mph 19.6 mph N/A Snow Light Snow
5:15 PM 23.0 °F 10.1 °F 19.4 °F 86% 29.74 in 0.2 mi East 15.0 mph 18.4 mph 0.01 in Snow Snow
5:35 PM 23.0 °F 10.1 °F 19.4 °F 86% 29.72 in 0.2 mi East 15.0 mph 20.7 mph 0.02 in Snow Snow
5:55 PM 23.0 °F 12.4 °F 19.4 °F 86% 29.72 in 0.2 mi ESE 10.4 mph 16.1 mph 0.03 in Snow Snow
6:15 PM 23.0 °F 11.1 °F 19.4 °F 86% 29.70 in 0.5 mi East 12.7 mph - N/A Snow Snow
6:35 PM 23.0 °F 13.9 °F 19.4 °F 86% 29.70 in 1.0 mi East 8.1 mph - 0.01 in Snow Snow
6:55 PM 23.0 °F 14.7 °F 19.4 °F 86% 29.70 in 0.5 mi East 6.9 mph - 0.02 in Snow Snow
7:15 PM 23.0 °F 17.0 °F 19.4 °F 86% 29.69 in 0.8 mi East 4.6 mph - 0.01 in Snow Snow
7:35 PM 23.0 °F - 21.2 °F 93% 29.69 in 2.0 mi Calm Calm - 0.01 in Snow Light Snow
7:55 PM 23.0 °F 17.0 °F 19.4 °F 86% 29.68 in 3.0 mi East 4.6 mph - 0.01 in Snow Light Snow
8:15 PM 23.0 °F - 19.4 °F 86% 29.66 in 1.8 mi Calm Calm - 0.01 in Snow Light Snow
8:35 PM 23.0 °F - 19.4 °F 86% 29.65 in 2.0 mi Calm Calm - 0.01 in Snow Light Snow
8:55 PM 23.0 °F - 21.2 °F 93% 29.65 in 3.0 mi Calm Calm - 0.01 in Snow Light Snow
9:15 PM 24.8 °F - 21.2 °F 86% 29.66 in 4.0 mi Calm Calm - N/A Snow Light Snow
9:35 PM 26.6 °F 22.6 °F 23.0 °F 86% 29.66 in 4.0 mi SW 3.5 mph - N/A Snow Light Snow
9:55 PM 26.6 °F 17.5 °F 23.0 °F 86% 29.66 in 1.8 mi SW 9.2 mph - N/A Snow Light Snow
10:15 PM 28.4 °F 18.0 °F 24.8 °F 86% 29.66 in 2.5 mi WSW 12.7 mph 18.4 mph N/A Snow Light Snow
10:35 PM 28.4 °F 17.5 °F 26.6 °F 93% 29.66 in 2.5 mi WSW 13.8 mph 21.9 mph N/A Snow Light Snow
10:55 PM 30.2 °F 17.8 °F 26.6 °F 86% 29.66 in 3.0 mi WSW 19.6 mph 26.5 mph N/A Snow Light Snow
11:15 PM 30.2 °F 18.1 °F 23.0 °F 75% 29.67 in 5.0 mi West 18.4 mph 32.2 mph N/A   Overcast
11:35 PM 30.2 °F 19.3 °F 23.0 °F 75% 29.68 in 7.0 mi West 15.0 mph 23.0 mph N/A   Overcast
11:55 PM 28.4 °F 14.4 °F 23.0 °F 80% 29.69 in 5.0 mi West 23.0 mph 31.1 mph N/A   Overcast